Hourly Data Report for October 05, 2017

All times are specified in Local Standard Time (LST). Add 1 hour to adjust for Daylight Saving Time where and when it is observed.

GRAND RAPIDS (AUT)
MANITOBA

53°11'11.064" N
99°16'04.098" W
222.50 m
5031A10
71858
WJD

Download Data

Hourly Data (October 2017)
Hourly Data Report for October 5, 2017
Temp Definition
°C
Dew Point Temp Definition
°C
Rel Hum Definition
%
Wind Dir Definition
10's deg

Wind Spd Definition
km/h
Visibility Definition
km
Stn Press Definition
kPa
Hmdx Definition


Wind Chill Definition


Weather Definition


TIME
00:00 3.0 1.8 92 31 4   99.21     LegendNANA
01:00 2.5 1.4 92 31 4   99.23     LegendNANA
02:00 -0.5 -1.4 93 30 4   99.23   -2 LegendNANA
03:00 -1.7 -2.4 95 30 5   99.22   -4 LegendNANA
04:00 -1.9 -2.5 96 30 5   99.25   -4 LegendNANA
05:00 -2.3 -2.9 96 27 5   99.23   -4 LegendNANA
06:00 -2.5 -3.0 96 27 5   99.25   -4 LegendNANA
07:00 -2.6 -3.2 96 28 4   99.24   -4 LegendNANA
08:00 -1.1 -1.6 96 29 4   99.26   -2 LegendNANA
09:00 6.2 3.4 83 29 4   99.23     LegendNANA
10:00 8.5 1.1 60 27 10   99.20     LegendNANA
11:00 10.0 1.5 56 28 10   99.13     LegendNANA
12:00 10.6 0.9 51 27 15   99.08     LegendNANA
13:00 10.4 1.6 54 27 16   99.04     LegendNANA
14:00 10.5 1.3 53 27 15   98.98     LegendNANA
15:00 10.9 2.9 58 27 13   98.94     LegendNANA
16:00 10.9 2.9 58 26 11   98.86     LegendNANA
17:00 10.9 3.0 58 24 12   98.77     LegendNANA
18:00 10.1 3.8 65 23 9   98.70     LegendNANA
19:00 9.4 4.2 70 21 7   98.65     LegendNANA
20:00 8.3 4.5 77 21 9   98.55     LegendNANA
21:00 7.6 4.7 82 21 11   98.48     LegendNANA
22:00 7.2 4.5 83 22 10   98.43     LegendNANA
23:00 8.2 4.4 77 23 10   98.37     LegendNANA

Notes on Data Quality.

Legend

  • E = Estimated
  • M = Missing
  • NA = Not Available
  • ‡ = Partner data that is not subject to review by the National Climate Archives
Date modified: